Regional Weather Roundup
Issued by NWS Spokane, WA

Home | Current Version | Previous Version | Text Only | Print | Product List | Glossary On
Versions: 1 2 3 4 5 6 7 8 9 10 11 12 13 14 15 16 17 18 19 20 21 22 23 24 25 26 27 28 29 30 31 32 33 34 35 36 37 38 39 40 41 42 43 44 45 46 47 48 49 50
000
NZUS01 KOTX 232210
RWROTX
EASTERN WASHINGTON/NORTHERN IDAHO ROUNDUP
NATIONAL WEATHER SERVICE, SPOKANE WA
300 PM PDT THU OCT 23 2014

Note: "fair" indicated few or no clouds below 12,000 feet with no
significant weather and/or obstructions to visibility.

...NORTHEAST WASHINGTON AND NORTHERN IDAHO PANHANDLE...

CITY           SKY/WX    TMP DP  RH WIND       PRES   REMARKS
SPOKANE INTL   CLOUDY    52  49  89 SW15      29.80R
SPOKANE DOWNTO CLOUDY    54  50  86 SW7       29.80S
COEUR D ALENE  CLOUDY    52  48  87 SW17      29.80R
DEER PARK      CLOUDY    54  48  80 SW16      29.78R
SANDPOINT      DRIZZLE   52  52 100 SW5       29.77R

...SOUTHEAST WASHINGTON AND SOUTHERN IDAHO PANHANDLE...

CITY           SKY/WX    TMP DP  RH WIND       PRES   REMARKS
WALLA WALLA    RAIN      55  50  83 S10       29.89R
PULLMAN/MOSCOW RAIN      51  48  89 SW9G23    29.88R FOG
LEWISTON       LGT RAIN  60  51  72 NW18G25   29.84R
LOWELL           N/A     53  51  93 CALM      29.92R

...COLUMBIA BASIN...

CITY           SKY/WX    TMP DP  RH WIND       PRES   REMARKS
EPHRATA        PTSUNNY   59  45  59 SW17      29.78S
MOSES LAKE     PTSUNNY   58  48  69 SW10      29.80R
TRI CITIES     CLOUDY    59  51  75 SW13      29.84R
HERMISTON      CLOUDY    57  53  86 SW8       29.88R
PENDLETON      CLOUDY    52  50  93 SE6       29.90R FOG

...EAST SLOPES CASCADES...

CITY           SKY/WX    TMP DP  RH WIND       PRES   REMARKS
THE DALLES     CLOUDY    61  45  55 W20       29.88R
YAKIMA         PTSUNNY   62  45  53 NW7       29.81R
ELLENSBURG     MOSUNNY   54  41  61 NW16      29.82R
WENATCHEE      MOSUNNY   58  40  51 S6        29.78S
OMAK           MOSUNNY   59  42  53 S13       29.72R

...SOUTHERN BRITISH COLUMBIA...

CITY           SKY/WX    TMP DP  RH WIND       PRES   REMARKS
PENTICTON      PTSUNNY   52  45  76 S18       29.68R
CASTLEGAR      LGT RAIN  52  48  87 S3        29.72S

...WESTERN MONTANA...

CITY           SKY/WX    TMP DP  RH WIND       PRES   REMARKS
MISSOULA       CLOUDY    59  41  51 W8        29.85S

...NEIGHBORING CITIES...

CITY           SKY/WX    TMP DP  RH WIND       PRES   REMARKS
SEATTLE        PTSUNNY   56  46  69 S13       29.85R
CALGARY        MOSUNNY   55  32  41 W15       29.57R



USA.gov is the U.S. government's official web portal to all federal, state and local government web resources and services.